(273466) = 2006 XF52 = 2002 TZ159

Discovered at Socorro on 2006-12-14 by LINEAR.

Orbit

Orbit type: Main Belt

Note: WebGL enabled browser required.

epoch2023-02-25.0
epoch JD2460000.5
perihelion date2020-08-16.98937
perihelion JD2459078.48937
argument of perihelion (°)244.72759
ascending node (°)83.22448
inclination (°)10.20550
eccentricity0.2663953
perihelion distance (AU)1.7352662
Tisserand w.r.t. Jupiter3.5
ΔV w.r.t. Earth (km/sec)8.7
semimajor axis (AU)2.3653968
mean anomaly (°)249.79501
mean daily motion (°/day)0.27092420
aphelion distance (AU)2.996
period (years)3.64
P-vector [x]0.83339725
P-vector [y]-0.42156126
P-vector [z]-0.35740051
Q-vector [x]0.52392127
Q-vector [y]0.80848159
Q-vector [z]0.26807466
absolute magnitude16.85
phase slope0.15
uncertainty0
referenceMPO 745323
observations used378
oppositions14
arc length (days)7568
first opposition used2002
last opposition used2023
residual rms (arc-secs)0.73
perturbers coarse indicatorM-v
perturbers precise indicator003Ek
first observation date used2002-10-05.0
last observation date used2023-06-25.0
computer nameMPCLINUX
JD of orbit computation2456670.643537
perihelion JD uncertainty (days)5.4227E-05
argument of perihelion uncertainty (°)3.5368E-05
ascending node uncertainty (°)3.2087E-05
inclination uncertainty (°)7.5185E-06
eccentricity uncertainty 4.7433E-08
perihelion distance uncertainty (AU)1.1128E-07
Minimum Orbit Intersection Distances (in AU)
for orbit epoch: 2460000.5, reference: E2023-ME7
Mercury1.32174
Venus1.01401
Earth0.75096
Mars0.39
Jupiter2.39956
Saturn6.25252
Uranus15.5099
Neptune27.4392

Observations

389 total observations over interval: 2002 10 05.35260 – 2023 06 25.229085
These data are available for download (format description).

Date (UT) J2000 RA J2000 Dec Magn Location Ref
2002 10 05.35260 02 27 31.62 -04 38 25.6 19.7   644 – Palomar Mountain/NEAT MPS 64100
2002 10 05.37370 02 27 30.48 -04 38 29.3 19.1   644 – Palomar Mountain/NEAT MPS 64100
2002 10 05.39607 02 27 29.28 -04 38 32.7 18.8   644 – Palomar Mountain/NEAT MPS 64100
2002 10 06.33692 02 26 41.07 -04 41 02.1 19.3   704 – Lincoln Laboratory ETS, New Mexico MPS 125659
2002 10 06.35209 02 26 40.30 -04 41 04.4 19.3   704 – Lincoln Laboratory ETS, New Mexico MPS 125659
2002 10 06.35229 02 26 40.35 -04 41 04.7 18.9   644 – Palomar Mountain/NEAT MPS 64100
2002 10 06.36682 02 26 39.47 -04 41 08.2 19.0   704 – Lincoln Laboratory ETS, New Mexico MPS 125659
2002 10 06.37502 02 26 39.09 -04 41 08.5 18.7   644 – Palomar Mountain/NEAT MPS 64100
2002 10 06.38179 02 26 38.64 -04 41 09.2 18.9   704 – Lincoln Laboratory ETS, New Mexico MPS 125659
2002 10 06.39629 02 26 37.91 -04 41 11.9 18.6   644 – Palomar Mountain/NEAT MPS 64100
2005 04 18.41034 15 18 06.94 -06 04 12.5 20.2 V 691 – Steward Observatory, Kitt Peak-Spacewatch MPS 292645
2005 04 18.42809 15 18 06.05 -06 04 09.4 20.5 V 691 – Steward Observatory, Kitt Peak-Spacewatch MPS 292645
2005 04 18.44619 15 18 05.15 -06 04 06.4 20.7 V 691 – Steward Observatory, Kitt Peak-Spacewatch MPS 292645
2005 05 11.34887 14 55 05.58 -05 17 49.9 19.9 R 703 – Catalina Sky Survey MPS 292645
2005 05 11.35575 14 55 05.11 -05 17 50.5 19.4 R 703 – Catalina Sky Survey MPS 292645
2005 05 11.36265 14 55 04.70 -05 17 49.1 18.6 R 703 – Catalina Sky Survey MPS 292645
2005 05 11.36954 14 55 04.14 -05 17 46.8 19.0 R 703 – Catalina Sky Survey MPS 292645
2005 05 14.28416 14 51 50.60 -05 16 02.3   704 – Lincoln Laboratory ETS, New Mexico MPS 407490
2005 05 14.29295 14 51 50.04 -05 16 02.9   704 – Lincoln Laboratory ETS, New Mexico MPS 407490
2005 05 14.30260 14 51 49.34 -05 16 02.8   704 – Lincoln Laboratory ETS, New Mexico MPS 407490
2005 05 14.32342 14 51 47.95 -05 16 01.8   704 – Lincoln Laboratory ETS, New Mexico MPS 407490
2006 11 20.431166 06 05 16.920 +21 57 49.92 20.46 V 645 – Apache Point-Sloan Digital Sky Survey MPS 390504
2006 11 20.434638 06 05 16.742 +21 57 50.76 21.30   645 – Apache Point-Sloan Digital Sky Survey MPS 390504
2006 12 14.28603 05 39 01.85 +23 30 07.6 20.0   704 – Lincoln Laboratory ETS, New Mexico MPS 192656
2006 12 14.29924 05 39 00.86 +23 30 09.8 19.8   704 – Lincoln Laboratory ETS, New Mexico MPS 192656
2006 12 14.32562 05 38 58.77 +23 30 14.6 20.2   704 – Lincoln Laboratory ETS, New Mexico MPS 192656
2006 12 16.17650 05 36 41.01 +23 36 40.4   691 – Steward Observatory, Kitt Peak-Spacewatch MPS 192656
2006 12 16.18643 05 36 40.26 +23 36 43.4   691 – Steward Observatory, Kitt Peak-Spacewatch MPS 192656
2006 12 16.19637 05 36 39.49 +23 36 44.4   691 – Steward Observatory, Kitt Peak-Spacewatch MPS 192656
2006 12 17.31845 05 35 15.75 +23 40 32.8 19.6 V G96 – Mt. Lemmon Survey MPS 192656
2006 12 17.32392 05 35 15.32 +23 40 34.0 19.5 V G96 – Mt. Lemmon Survey MPS 192656
2006 12 17.32949 05 35 14.89 +23 40 34.8 19.5 V G96 – Mt. Lemmon Survey MPS 192656
2006 12 17.33501 05 35 14.46 +23 40 36.5 20.1 V G96 – Mt. Lemmon Survey MPS 192656
2006 12 21.14383 05 30 34.73 +23 52 59.9 20.1 V 691 – Steward Observatory, Kitt Peak-Spacewatch MPS 192656
2006 12 21.15376 05 30 34.05 +23 53 01.0 20.1 V 691 – Steward Observatory, Kitt Peak-Spacewatch MPS 192656
2006 12 21.16368 05 30 33.28 +23 53 03.6 20.5 V 691 – Steward Observatory, Kitt Peak-Spacewatch MPS 192656
2006 12 22.25495 05 29 14.27 +23 56 28.1   704 – Lincoln Laboratory ETS, New Mexico MPS 407490
2006 12 22.26757 05 29 13.40 +23 56 30.8   704 – Lincoln Laboratory ETS, New Mexico MPS 407490
2006 12 22.28018 05 29 12.40 +23 56 32.8   704 – Lincoln Laboratory ETS, New Mexico MPS 407490
2006 12 22.29289 05 29 11.38 +23 56 37.8   704 – Lincoln Laboratory ETS, New Mexico MPS 407490
2009 07 01.64367 20 35 37.71 -29 09 22.3 19.0 V E12 – Siding Spring Survey MPS 309453
2009 07 01.65623 20 35 37.50 -29 09 32.6 18.1 V E12 – Siding Spring Survey MPS 309453
2009 07 01.66749 20 35 37.35 -29 09 41.4 18.2 V E12 – Siding Spring Survey MPS 309453
2009 08 01.55299 20 17 17.73 -35 46 25.5 17.9 V E12 – Siding Spring Survey MPS 309453
2009 08 01.56335 20 17 17.12 -35 46 31.7 17.8 V E12 – Siding Spring Survey MPS 309453
2009 08 01.57341 20 17 16.72 -35 46 36.8 17.9 V E12 – Siding Spring Survey MPS 309453
2009 08 01.58344 20 17 16.15 -35 46 43.1 18.2 V E12 – Siding Spring Survey MPS 309453
2009 08 14.50667 20 08 57.94 -37 19 13.3 19.0 V E12 – Siding Spring Survey MPS 309453
2009 08 14.51527 20 08 57.58 -37 19 15.6 18.8 V E12 – Siding Spring Survey MPS 309453
2009 08 14.52356 20 08 57.37 -37 19 18.3 18.8 V E12 – Siding Spring Survey MPS 309453
2009 08 14.53176 20 08 57.08 -37 19 20.1 18.8 V E12 – Siding Spring Survey MPS 309453
2010 12 08.35367 08 39 49.42 +24 54 22.1 20.9 V G96 – Mt. Lemmon Survey MPS 359047
2010 12 08.36287 08 39 49.21 +24 54 25.4 21.4 V G96 – Mt. Lemmon Survey MPS 359047
2010 12 08.37117 08 39 49.03 +24 54 28.1 21.5 V G96 – Mt. Lemmon Survey MPS 359047
2011 01 14.40633 08 10 47.20 +28 53 53.0 20.8 V G96 – Mt. Lemmon Survey MPS 367074
2011 01 14.41265 08 10 46.70 +28 53 55.4 21.2 V G96 – Mt. Lemmon Survey MPS 367074
2011 01 14.41896 08 10 46.27 +28 53 58.0 21.5 V G96 – Mt. Lemmon Survey MPS 367074
2011 01 14.42524 08 10 45.84 +28 54 00.2 21.2 V G96 – Mt. Lemmon Survey MPS 367074
2011 01 30.29051 07 52 54.313 +30 12 36.61 21.0 w F51 – Pan-STARRS 1, Haleakala MPS 378663
2011 01 30.30506 07 52 53.363 +30 12 40.00 21.1 w F51 – Pan-STARRS 1, Haleakala MPS 378663
2011 01 30.32015 07 52 52.362 +30 12 43.51 21.1 w F51 – Pan-STARRS 1, Haleakala MPS 378663
2011 01 30.33449 07 52 51.413 +30 12 46.88 21.0 w F51 – Pan-STARRS 1, Haleakala MPS 378663
2012 04 15.34893 13 05 30.449 +09 06 04.28 21.1 g F51 – Pan-STARRS 1, Haleakala MPS 421774
2012 04 15.36036 13 05 29.760 +09 06 06.87 20.8 g F51 – Pan-STARRS 1, Haleakala MPS 421774
2012 04 15.50116 13 05 21.085 +09 06 37.02 20.4 r F51 – Pan-STARRS 1, Haleakala MPS 421774
2012 04 15.51202 13 05 20.423 +09 06 39.34 20.4 r F51 – Pan-STARRS 1, Haleakala MPS 421774
2012 04 16.98495 13 03 53.23 +09 11 41.7   621 – Bergisch Gladbach MPS 421774
2012 04 16.99726 13 03 52.46 +09 11 44.1   621 – Bergisch Gladbach MPS 421774
2012 04 17.00958 13 03 51.73 +09 11 46.5 21.1 R 621 – Bergisch Gladbach MPS 421774
2012 04 21.43533 12 59 35.365 +09 24 21.09 20.6 w F51 – Pan-STARRS 1, Haleakala MPS 422752
2012 04 21.44968 12 59 34.530 +09 24 23.15 20.4 w F51 – Pan-STARRS 1, Haleakala MPS 422752
2012 04 21.46417 12 59 33.686 +09 24 25.15 20.5 w F51 – Pan-STARRS 1, Haleakala MPS 422752
2012 04 21.47868 12 59 32.837 +09 24 27.22 20.4 w F51 – Pan-STARRS 1, Haleakala MPS 422752
2013 10 09.46259 03 40 16.94 +05 43 22.2 19.4 V 703 – Catalina Sky Survey MPS 482100
2013 10 09.46911 03 40 16.77 +05 43 21.8 18.8 V 703 – Catalina Sky Survey MPS 482100
2013 10 09.47576 03 40 16.47 +05 43 20.1 19.0 V 703 – Catalina Sky Survey MPS 482100
2013 10 09.48228 03 40 16.29 +05 43 21.4 19.4 V 703 – Catalina Sky Survey MPS 482100
2013 10 31.33489 03 20 59.16 +05 33 13.5 18.7 G G45 – Space Surveillance Telescope, Atom Site MPS 1608762
2013 10 31.35432 03 20 57.82 +05 33 14.4 19.3 G G45 – Space Surveillance Telescope, Atom Site MPS 1608762
2013 10 31.39378 03 20 55.01 +05 33 15.1 19.3 G G45 – Space Surveillance Telescope, Atom Site MPS 1608762
2013 10 31.46389 03 20 50.07 +05 33 17.3 18.6 G G45 – Space Surveillance Telescope, Atom Site MPS 1608762
2013 11 01.29249 03 19 53.83 +05 33 45.3 18.8 V 703 – Catalina Sky Survey MPS 486968
2013 11 01.30066 03 19 53.25 +05 33 46.4 19.0 V 703 – Catalina Sky Survey MPS 486968
2013 11 01.30879 03 19 52.76 +05 33 45.6 18.7 V 703 – Catalina Sky Survey MPS 486968
2013 11 01.31691 03 19 52.13 +05 33 46.4 18.6 V 703 – Catalina Sky Survey MPS 486968
2013 11 04.43234 03 16 15.545 +05 36 17.95 18.8 w F51 – Pan-STARRS 1, Haleakala MPS 486968
2013 11 04.44629 03 16 14.519 +05 36 18.84 18.6 w F51 – Pan-STARRS 1, Haleakala MPS 486968
2013 11 04.45985 03 16 13.527 +05 36 19.58 18.9 w F51 – Pan-STARRS 1, Haleakala MPS 486968
2013 11 04.47343 03 16 12.529 +05 36 20.41 18.8 w F51 – Pan-STARRS 1, Haleakala MPS 486968
